Location: DaVinci Observatory
(43.1080°N, 78.6453°W)
Time: 20:20:39
(UTC-04:00)

OTV 5 (USA 277) - Pass Details

Date: 14 October 2017
Orbit: 404 x 417 km, 43.0° (Epoch: 07 September)

Event Time Altitude Azimuth Distance (km) Brightness Sun altitude
Rises 21:09:41 0° 276° (W) 2,355 ? -29.2°
Reaches altitude 10° 21:11:48 10° 275° (W) 1,491 ? -29.5°
Enters shadow 21:12:30 15° 275° (W) 1,210 ? -29.7°
